,,PA_Meas_PMT16A,,PR_Meas_QMR101_102,,RH_Meas_QMH101,,SR_Meas_QMS101,,TA_Meas_QMH101,,GenWind,,GenWind,
time,status,PA,status,PR,status,RH,status,SR,status,TA,status,DirAvg,status,SpdAvg,
2014-10-16, 00:00:04,VALID,918.301,VALID,0,VALID,96.4286,VALID,0,VALID,21.4583,VALID,17,VALID,0,
2014-10-16, 00:01:04,VALID,918.278,VALID,0,VALID,96.4133,VALID,0,VALID,21.4388,VALID,342,VALID,0,
2014-10-16, 00:02:04,VALID,918.27,VALID,0,VALID,96.421,VALID,0,VALID,21.4193,VALID,340,VALID,0,
2014-10-16, 00:03:04,VALID,918.238,VALID,0,VALID,96.4286,VALID,0,VALID,21.4388,VALID,351,VALID,0,
2014-10-16, 00:04:04,VALID,918.242,VALID,0,VALID,96.421,VALID,0,VALID,21.3998,VALID,341,VALID,0,
2014-10-16, 00:05:04,VALID,918.219,VALID,0,VALID,96.4438,VALID,0,VALID,21.4209,VALID,8,VALID,0,
2014-10-16, 00:06:04,VALID,918.214,VALID,0,VALID,96.421,VALID,0,VALID,21.3998,VALID,11,VALID,0,
2014-10-16, 00:07:04,VALID,918.196,VALID,0,VALID,96.4362,VALID,0,VALID,21.3608,VALID,7,VALID,0,
2014-10-16, 00:08:04,VALID,918.212,VALID,0,VALID,96.4515,VALID,0,VALID,21.3412,VALID,7,VALID,0,
2014-10-16, 00:09:04,VALID,918.177,VALID,0,VALID,96.4819,VALID,0,VALID,21.3412,VALID,13,VALID,0,
2014-10-16, 00:10:04,VALID,918.182,VALID,0,VALID,96.4667,VALID,0,VALID,21.3217,VALID,17,VALID,0,
2014-10-16, 00:11:04,VALID,918.14,VALID,0,VALID,96.5201,VALID,0,VALID,21.3217,VALID,11,VALID,0,
2014-10-16, 00:12:04,VALID,918.078,VALID,0,VALID,96.5353,VALID,0,VALID,21.3022,VALID,6,VALID,0,
2014-10-16, 00:13:04,VALID,918.076,VALID,0,VALID,96.5277,VALID,0,VALID,21.2616,VALID,6,VALID,0,
2014-10-16, 00:14:04,VALID,918.066,VALID,0,VALID,96.5201,VALID,0,VALID,21.2632,VALID,6,VALID,0,
2014-10-16, 00:15:04,VALID,918.095,VALID,0,VALID,96.5353,VALID,0,VALID,21.2437,VALID,6,VALID,0,
2014-10-16, 00:16:04,VALID,918.104,VALID,0,VALID,96.5429,VALID,0,VALID,21.2242,VALID,6,VALID,0,
2014-10-16, 00:17:04,VALID,918.104,VALID,0,VALID,96.5734,VALID,0,VALID,21.2242,VALID,6,VALID,0,
2014-10-16, 00:18:04,VALID,918.082,VALID,0,VALID,96.5811,VALID,0,VALID,21.2047,VALID,6,VALID,0,
2014-10-16, 00:19:04,VALID,918.116,VALID,0,VALID,96.6344,VALID,0,VALID,21.2047,VALID,6,VALID,0,
2014-10-16, 00:20:04,VALID,918.091,VALID,0,VALID,96.6344,VALID,0,VALID,21.2047,VALID,6,VALID,0,
2014-10-16, 00:21:04,VALID,918.076,VALID,0,VALID,96.642,VALID,0,VALID,21.2242,VALID,6,VALID,0,
2014-10-16, 00:22:04,VALID,918.064,VALID,0,VALID,96.6573,VALID,0,VALID,21.2453,VALID,6,VALID,0,
2014-10-16, 00:23:04,VALID,918.027,VALID,0,VALID,96.6954,VALID,0,VALID,21.2437,VALID,6,VALID,0,
2014-10-16, 00:24:04,VALID,918.02,VALID,0,VALID,96.7183,VALID,0,VALID,21.2437,VALID,6,VALID,0,
2014-10-16, 00:25:04,VALID,917.997,VALID,0,VALID,96.7259,VALID,0,VALID,21.2632,VALID,6,VALID,0,
2014-10-16, 00:26:04,VALID,917.981,VALID,0,VALID,96.7107,VALID,0,VALID,21.2437,VALID,6,VALID,0,
2014-10-16, 00:27:04,VALID,917.96,VALID,0,VALID,96.7411,VALID,0,VALID,21.2632,VALID,16,VALID,0,
2014-10-16, 00:28:04,VALID,917.93,VALID,0,VALID,96.7411,VALID,0,VALID,21.2437,VALID,16,VALID,0,
2014-10-16, 00:29:04,VALID,917.926,VALID,0,VALID,96.7335,VALID,0,VALID,21.2437,VALID,21,VALID,0,
2014-10-16, 00:30:04,VALID,917.909,VALID,0,VALID,96.7411,VALID,0,VALID,21.2242,VALID,16,VALID,0,
2014-10-16, 00:31:04,VALID,917.888,VALID,0,VALID,96.7716,VALID,0,VALID,21.2242,VALID,18,VALID,0,
2014-10-16, 00:32:04,VALID,917.86,VALID,0,VALID,96.764,VALID,0,VALID,21.2047,VALID,25,VALID,0,
2014-10-16, 00:33:04,VALID,917.885,VALID,0,VALID,96.7716,VALID,0,VALID,21.1852,VALID,21,VALID,0,
2014-10-16, 00:34:04,VALID,917.85,VALID,0,VALID,96.7793,VALID,0,VALID,21.1657,VALID,21,VALID,0,
2014-10-16, 00:35:04,VALID,917.844,VALID,0,VALID,96.7869,VALID,0,VALID,21.1657,VALID,21,VALID,0,
2014-10-16, 00:36:04,VALID,917.806,VALID,0,VALID,96.825,VALID,0.107441,VALID,21.1836,VALID,358,VALID,0,
2014-10-16, 00:37:04,VALID,917.793,VALID,0,VALID,96.825,VALID,0,VALID,21.1852,VALID,354,VALID,0,
2014-10-16, 00:38:04,VALID,917.786,VALID,0,VALID,96.8326,VALID,0.107441,VALID,21.1445,VALID,339,VALID,0,
2014-10-16, 00:39:04,VALID,917.761,VALID,0,VALID,96.8021,VALID,0.107441,VALID,21.1055,VALID,339,VALID,0,
2014-10-16, 00:40:04,VALID,917.749,VALID,0,VALID,96.8403,VALID,0.107441,VALID,21.1055,VALID,339,VALID,0,
2014-10-16, 00:41:04,VALID,917.743,VALID,0,VALID,96.8326,VALID,0.107441,VALID,21.125,VALID,339,VALID,0,
2014-10-16, 00:42:04,VALID,917.754,VALID,0,VALID,96.8403,VALID,0.107441,VALID,21.086,VALID,352,VALID,0,
2014-10-16, 00:43:04,VALID,917.717,VALID,0,VALID,96.8555,VALID,0,VALID,21.0876,VALID,350,VALID,0,
2014-10-16, 00:44:04,VALID,917.767,VALID,0,VALID,96.8707,VALID,0.107441,VALID,21.0275,VALID,357,VALID,0,
2014-10-16, 00:45:04,VALID,917.754,VALID,0,VALID,96.8555,VALID,0.107441,VALID,21.0275,VALID,357,VALID,0,
2014-10-16, 00:46:04,VALID,917.771,VALID,0,VALID,96.8631,VALID,0.107441,VALID,21.0275,VALID,357,VALID,0,
2014-10-16, 00:47:04,VALID,917.788,VALID,0,VALID,96.8784,VALID,0,VALID,21.0275,VALID,355,VALID,0,
2014-10-16, 00:48:04,VALID,917.785,VALID,0,VALID,96.886,VALID,0,VALID,21.0275,VALID,334,VALID,0,
2014-10-16, 00:49:04,VALID,917.796,VALID,0,VALID,96.9012,VALID,0,VALID,21.008,VALID,334,VALID,0,
2014-10-16, 00:50:04,VALID,917.758,VALID,0,VALID,96.9012,VALID,0.107441,VALID,21.0275,VALID,334,VALID,0,
2014-10-16, 00:51:04,VALID,917.753,VALID,0,VALID,96.9012,VALID,0,VALID,21.0291,VALID,334,VALID,0,
2014-10-16, 00:52:04,VALID,917.728,VALID,0,VALID,96.9089,VALID,0,VALID,21.0681,VALID,334,VALID,0,
2014-10-16, 00:53:04,VALID,917.72,VALID,0,VALID,96.9089,VALID,0,VALID,21.0291,VALID,334,VALID,0,
2014-10-16, 00:54:04,VALID,917.696,VALID,0,VALID,96.9317,VALID,0,VALID,21.0291,VALID,334,VALID,0,
2014-10-16, 00:55:04,VALID,917.693,VALID,0,VALID,96.947,VALID,0,VALID,21.0096,VALID,334,VALID,0,
2014-10-16, 00:56:04,VALID,917.704,VALID,0,VALID,96.947,VALID,0,VALID,20.9901,VALID,334,VALID,0,
2014-10-16, 00:57:04,VALID,917.688,VALID,0,VALID,96.9394,VALID,0,VALID,20.9901,VALID,334,VALID,0,
2014-10-16, 00:58:04,VALID,917.663,VALID,0,VALID,96.9546,VALID,0,VALID,21.0307,VALID,334,VALID,0,
2014-10-16, 00:59:04,VALID,917.672,VALID,0,VALID,96.9546,VALID,0,VALID,21.0502,VALID,334,VALID,0,
2014-10-16, 01:00:04,VALID,917.684,VALID,0,VALID,96.9622,VALID,0,VALID,21.0486,VALID,334,VALID,0,
2014-10-16, 01:01:04,VALID,917.664,VALID,0,VALID,96.9775,VALID,0,VALID,21.0486,VALID,334,VALID,0,
2014-10-16, 01:02:04,VALID,917.592,VALID,0,VALID,96.9775,VALID,0,VALID,21.0486,VALID,334,VALID,0,
2014-10-16, 01:03:04,VALID,917.602,VALID,0,VALID,96.9927,VALID,0,VALID,21.0291,VALID,334,VALID,0,
2014-10-16, 01:04:04,VALID,917.567,VALID,0,VALID,96.9698,VALID,0,VALID,21.0681,VALID,334,VALID,0,
2014-10-16, 01:05:04,VALID,917.56,VALID,0,VALID,96.9775,VALID,0,VALID,21.0681,VALID,334,VALID,0,
2014-10-16, 01:06:04,VALID,917.543,VALID,0,VALID,96.9851,VALID,0,VALID,21.1071,VALID,334,VALID,0,
2014-10-16, 01:07:04,VALID,917.507,VALID,0,VALID,96.9775,VALID,0,VALID,21.0665,VALID,334,VALID,0,
2014-10-16, 01:08:04,VALID,917.484,VALID,0,VALID,96.9775,VALID,0,VALID,21.0876,VALID,334,VALID,0,
2014-10-16, 01:09:04,VALID,917.437,VALID,0,VALID,96.947,VALID,0,VALID,21.0876,VALID,334,VALID,0,
2014-10-16, 01:10:04,VALID,917.388,VALID,0,VALID,96.9546,VALID,0,VALID,21.0486,VALID,334,VALID,0,
2014-10-16, 01:11:04,VALID,917.354,VALID,0,VALID,96.9622,VALID,0,VALID,21.0486,VALID,334,VALID,0,
2014-10-16, 01:12:04,VALID,917.346,VALID,0,VALID,96.9546,VALID,0,VALID,21.0291,VALID,334,VALID,0,
2014-10-16, 01:13:04,VALID,917.304,VALID,0,VALID,96.9241,VALID,0,VALID,21.0291,VALID,334,VALID,0,
2014-10-16, 01:14:04,VALID,917.298,VALID,0,VALID,96.9241,VALID,0,VALID,21.0291,VALID,334,VALID,0,
2014-10-16, 01:15:04,VALID,917.286,VALID,0,VALID,96.9089,VALID,0,VALID,21.0291,VALID,334,VALID,0,
2014-10-16, 01:16:04,VALID,917.275,VALID,0,VALID,96.8936,VALID,0,VALID,21.0096,VALID,334,VALID,0,
2014-10-16, 01:17:04,VALID,917.269,VALID,0,VALID,96.9089,VALID,0,VALID,21.0112,VALID,334,VALID,0,
2014-10-16, 01:18:04,VALID,917.281,VALID,0,VALID,96.886,VALID,0,VALID,20.9901,VALID,334,VALID,0,
2014-10-16, 01:19:04,VALID,917.256,VALID,0,VALID,96.8631,VALID,0,VALID,20.9901,VALID,334,VALID,0,
2014-10-16, 01:20:04,VALID,917.267,VALID,0,VALID,96.8555,VALID,0,VALID,20.9901,VALID,334,VALID,0,
2014-10-16, 01:21:04,VALID,917.26,VALID,0,VALID,96.8707,VALID,0,VALID,20.9901,VALID,334,VALID,0,
2014-10-16, 01:22:04,VALID,917.252,VALID,0,VALID,96.8631,VALID,0,VALID,20.9901,VALID,334,VALID,0,
2014-10-16, 01:23:04,VALID,917.204,VALID,0,VALID,96.825,VALID,0,VALID,20.9706,VALID,334,VALID,0,
2014-10-16, 01:24:04,VALID,917.212,VALID,0,VALID,96.8326,VALID,0,VALID,20.9706,VALID,334,VALID,0,
2014-10-16, 01:25:04,VALID,917.151,VALID,0,VALID,96.825,VALID,0,VALID,20.9706,VALID,334,VALID,0,
2014-10-16, 01:26:04,VALID,917.132,VALID,0,VALID,96.7869,VALID,0,VALID,20.9706,VALID,334,VALID,0,
2014-10-16, 01:27:04,VALID,917.112,VALID,0,VALID,96.7869,VALID,0,VALID,20.9706,VALID,334,VALID,0,
2014-10-16, 01:28:04,VALID,917.089,VALID,0,VALID,96.7869,VALID,0,VALID,20.9706,VALID,334,VALID,0,
2014-10-16, 01:29:04,VALID,917.084,VALID,0,VALID,96.764,VALID,0,VALID,20.9706,VALID,334,VALID,0,
2014-10-16, 01:30:04,VALID,917.06,VALID,0,VALID,96.764,VALID,0,VALID,20.9901,VALID,334,VALID,0,
2014-10-16, 01:31:04,VALID,917.034,VALID,0,VALID,96.7488,VALID,0,VALID,20.9706,VALID,334,VALID,0,
2014-10-16, 01:32:04,VALID,916.992,VALID,0,VALID,96.7411,VALID,0,VALID,20.9706,VALID,334,VALID,0,
2014-10-16, 01:33:04,VALID,916.988,VALID,0,VALID,96.7259,VALID,0,VALID,20.9706,VALID,334,VALID,0,
2014-10-16, 01:34:04,VALID,917.003,VALID,0,VALID,96.7183,VALID,0,VALID,20.9511,VALID,334,VALID,0,
2014-10-16, 01:35:04,VALID,916.982,VALID,0,VALID,96.6878,VALID,0,VALID,20.9316,VALID,334,VALID,0,
2014-10-16, 01:36:04,VALID,916.945,VALID,0,VALID,96.6573,VALID,0,VALID,20.9527,VALID,334,VALID,0,
2014-10-16, 01:37:04,VALID,916.966,VALID,0,VALID,96.6649,VALID,0,VALID,20.9316,VALID,334,VALID,0,
2014-10-16, 01:38:04,VALID,916.963,VALID,0,VALID,96.642,VALID,0,VALID,20.912,VALID,334,VALID,0,
2014-10-16, 01:39:04,VALID,916.99,VALID,0,VALID,96.6115,VALID,0,VALID,20.912,VALID,334,VALID,0,
2014-10-16, 01:40:04,VALID,916.976,VALID,0,VALID,96.5887,VALID,0,VALID,20.8925,VALID,334,VALID,0,
2014-10-16, 01:41:04,VALID,916.95,VALID,0,VALID,96.5811,VALID,0,VALID,20.8925,VALID,334,VALID,0,
2014-10-16, 01:42:04,VALID,916.981,VALID,0,VALID,96.5429,VALID,0,VALID,20.873,VALID,334,VALID,0,
2014-10-16, 01:43:04,VALID,916.941,VALID,0,VALID,96.5201,VALID,0,VALID,20.8535,VALID,334,VALID,0,
2014-10-16, 01:44:04,VALID,916.924,VALID,0,VALID,96.5048,VALID,0,VALID,20.834,VALID,334,VALID,0,
2014-10-16, 01:45:04,VALID,916.891,VALID,0,VALID,96.4743,VALID,0,VALID,20.8145,VALID,334,VALID,0,
2014-10-16, 01:46:04,VALID,916.885,VALID,0,VALID,96.4515,VALID,0,VALID,20.795,VALID,334,VALID,0,
2014-10-16, 01:47:04,VALID,916.856,VALID,0,VALID,96.4591,VALID,0,VALID,20.7755,VALID,334,VALID,0,
2014-10-16, 01:48:04,VALID,916.831,VALID,0,VALID,96.4515,VALID,0,VALID,20.756,VALID,334,VALID,0,
2014-10-16, 01:49:04,VALID,916.827,VALID,0,VALID,96.4972,VALID,0,VALID,20.7365,VALID,334,VALID,0,
2014-10-16, 01:50:04,VALID,916.786,VALID,0,VALID,96.5201,VALID,0,VALID,20.717,VALID,334,VALID,0,
2014-10-16, 01:51:04,VALID,916.785,VALID,0,VALID,96.5124,VALID,0,VALID,20.717,VALID,334,VALID,0,
2014-10-16, 01:52:04,VALID,916.773,VALID,0,VALID,96.5506,VALID,0,VALID,20.717,VALID,334,VALID,0,
2014-10-16, 01:53:04,VALID,916.75,VALID,0,VALID,96.5887,VALID,0,VALID,20.7365,VALID,334,VALID,0,
2014-10-16, 01:54:04,VALID,916.762,VALID,0,VALID,96.6039,VALID,0,VALID,20.717,VALID,334,VALID,0,
2014-10-16, 01:55:04,VALID,916.767,VALID,0,VALID,96.6192,VALID,0,VALID,20.7365,VALID,334,VALID,0,
2014-10-16, 01:56:04,VALID,916.784,VALID,0,VALID,96.6039,VALID,0,VALID,20.7154,VALID,334,VALID,0,
2014-10-16, 01:57:04,VALID,916.779,VALID,0,VALID,96.6268,VALID,0,VALID,20.717,VALID,334,VALID,0,
2014-10-16, 01:58:04,VALID,916.771,VALID,0,VALID,96.642,VALID,0,VALID,20.717,VALID,334,VALID,0,
2014-10-16, 01:59:04,VALID,916.767,VALID,0,VALID,96.6573,VALID,0,VALID,20.717,VALID,334,VALID,0,
2014-10-16, 02:00:04,VALID,916.793,VALID,0,VALID,96.6573,VALID,0,VALID,20.6975,VALID,334,VALID,0,
2014-10-16, 02:01:04,VALID,916.796,VALID,0,VALID,96.6649,VALID,0,VALID,20.717,VALID,334,VALID,0,
2014-10-16, 02:02:04,VALID,916.843,VALID,0,VALID,96.6725,VALID,0,VALID,20.717,VALID,334,VALID,0,
2014-10-16, 02:03:04,VALID,916.85,VALID,0,VALID,96.6802,VALID,0,VALID,20.6975,VALID,334,VALID,0,
2014-10-16, 02:04:04,VALID,916.852,VALID,0,VALID,96.6802,VALID,0,VALID,20.717,VALID,334,VALID,0,
2014-10-16, 02:05:04,VALID,916.858,VALID,0,VALID,96.7107,VALID,0,VALID,20.717,VALID,334,VALID,0,
2014-10-16, 02:06:04,VALID,916.837,VALID,0,VALID,96.703,VALID,0,VALID,20.678,VALID,334,VALID,0,
2014-10-16, 02:07:04,VALID,916.844,VALID,0,VALID,96.7107,VALID,0,VALID,20.678,VALID,334,VALID,0,
2014-10-16, 02:08:04,VALID,916.832,VALID,0,VALID,96.7411,VALID,0,VALID,20.6569,VALID,334,VALID,0,
2014-10-16, 02:09:04,VALID,916.82,VALID,0,VALID,96.7335,VALID,0,VALID,20.678,VALID,334,VALID,0,
2014-10-16, 02:10:04,VALID,916.784,VALID,0,VALID,96.7716,VALID,0,VALID,20.678,VALID,334,VALID,0,
2014-10-16, 02:11:04,VALID,916.778,VALID,0,VALID,96.7793,VALID,0,VALID,20.678,VALID,334,VALID,0,
2014-10-16, 02:12:04,VALID,916.746,VALID,0,VALID,96.764,VALID,0,VALID,20.6585,VALID,334,VALID,0,
2014-10-16, 02:13:04,VALID,916.692,VALID,0,VALID,96.7793,VALID,0,VALID,20.639,VALID,334,VALID,0,
2014-10-16, 02:14:04,VALID,916.689,VALID,0,VALID,96.7869,VALID,0,VALID,20.639,VALID,334,VALID,0,
2014-10-16, 02:15:04,VALID,916.636,VALID,0,VALID,96.8098,VALID,0,VALID,20.6585,VALID,334,VALID,0,
2014-10-16, 02:16:04,VALID,916.639,VALID,0,VALID,96.8326,VALID,0,VALID,20.639,VALID,334,VALID,0,
2014-10-16, 02:17:04,VALID,916.59,VALID,0,VALID,96.8479,VALID,0,VALID,20.639,VALID,334,VALID,0,
2014-10-16, 02:18:04,VALID,916.618,VALID,0,VALID,96.8555,VALID,0,VALID,20.639,VALID,334,VALID,0,
2014-10-16, 02:19:04,VALID,916.581,VALID,0,VALID,96.8707,VALID,0,VALID,20.6194,VALID,334,VALID,0,
2014-10-16, 02:20:04,VALID,916.542,VALID,0,VALID,96.886,VALID,0,VALID,20.5999,VALID,334,VALID,0,
2014-10-16, 02:21:04,VALID,916.537,VALID,0,VALID,96.886,VALID,0,VALID,20.5999,VALID,334,VALID,0,
2014-10-16, 02:22:04,VALID,916.533,VALID,0,VALID,96.8936,VALID,0,VALID,20.5414,VALID,334,VALID,0,
2014-10-16, 02:23:04,VALID,916.535,VALID,0,VALID,96.9012,VALID,0,VALID,20.5235,VALID,344,VALID,0,
2014-10-16, 02:24:04,VALID,916.525,VALID,0,VALID,96.8936,VALID,0,VALID,20.5024,VALID,359,VALID,0,
2014-10-16, 02:25:04,VALID,916.49,VALID,0,VALID,96.9241,VALID,0,VALID,20.4634,VALID,359,VALID,0,
2014-10-16, 02:26:04,VALID,916.463,VALID,0,VALID,96.947,VALID,0,VALID,20.4829,VALID,359,VALID,0,
2014-10-16, 02:27:04,VALID,916.463,VALID,0,VALID,96.9546,VALID,0,VALID,20.5024,VALID,359,VALID,0,
2014-10-16, 02:28:04,VALID,916.446,VALID,0,VALID,96.9775,VALID,0,VALID,20.5219,VALID,359,VALID,0,
2014-10-16, 02:29:04,VALID,916.422,VALID,0,VALID,97.0003,VALID,0,VALID,20.5219,VALID,359,VALID,0,
2014-10-16, 02:30:04,VALID,916.39,VALID,0,VALID,97.0232,VALID,0,VALID,20.5414,VALID,58,VALID,0,
2014-10-16, 02:31:04,VALID,916.362,VALID,0,VALID,97.008,VALID,0,VALID,20.5235,VALID,61,VALID,0,
2014-10-16, 02:32:04,VALID,916.349,VALID,0,VALID,97.0232,VALID,0,VALID,20.4829,VALID,61,VALID,0,
2014-10-16, 02:33:04,VALID,916.3,VALID,0,VALID,97.0385,VALID,0,VALID,20.4829,VALID,61,VALID,0,
2014-10-16, 02:34:04,VALID,916.29,VALID,0,VALID,97.0385,VALID,0,VALID,20.4829,VALID,61,VALID,0,
2014-10-16, 02:35:04,VALID,916.271,VALID,0,VALID,97.0385,VALID,0,VALID,20.4634,VALID,61,VALID,0,
2014-10-16, 02:36:04,VALID,916.263,VALID,0,VALID,97.069,VALID,0,VALID,20.4634,VALID,61,VALID,0,
2014-10-16, 02:37:04,VALID,916.251,VALID,0,VALID,97.069,VALID,0,VALID,20.4423,VALID,61,VALID,0,
2014-10-16, 02:38:04,VALID,916.235,VALID,0,VALID,97.069,VALID,0,VALID,20.4439,VALID,61,VALID,0,
2014-10-16, 02:39:04,VALID,916.22,VALID,0,VALID,97.0918,VALID,0,VALID,20.4439,VALID,61,VALID,0,
2014-10-16, 02:40:04,VALID,916.205,VALID,0,VALID,97.0842,VALID,0,VALID,20.4439,VALID,60,VALID,0,
2014-10-16, 02:41:04,VALID,916.228,VALID,0,VALID,97.0994,VALID,0,VALID,20.4634,VALID,61,VALID,0,
2014-10-16, 02:42:04,VALID,916.251,VALID,0,VALID,97.1299,VALID,0,VALID,20.4439,VALID,61,VALID,0,
2014-10-16, 02:43:04,VALID,916.239,VALID,0,VALID,97.1147,VALID,0,VALID,20.3854,VALID,60,VALID,0,
2014-10-16, 02:44:04,VALID,916.243,VALID,0,VALID,97.1147,VALID,0,VALID,20.3659,VALID,61,VALID,0,
2014-10-16, 02:45:04,VALID,916.255,VALID,0,VALID,97.1299,VALID,0,VALID,20.3464,VALID,61,VALID,0,
2014-10-16, 02:46:04,VALID,916.219,VALID,0,VALID,97.1376,VALID,0,VALID,20.3269,VALID,61,VALID,0,
2014-10-16, 02:47:04,VALID,916.202,VALID,0,VALID,97.1604,VALID,0,VALID,20.3074,VALID,61,VALID,0,
2014-10-16, 02:48:04,VALID,916.165,VALID,0,VALID,97.1604,VALID,0,VALID,20.2879,VALID,61,VALID,0,
2014-10-16, 02:49:04,VALID,916.134,VALID,0,VALID,97.1604,VALID,0,VALID,20.3269,VALID,61,VALID,0,
2014-10-16, 02:50:04,VALID,916.085,VALID,0,VALID,97.1909,VALID,0,VALID,20.3074,VALID,60,VALID,0,
2014-10-16, 02:51:04,VALID,916.066,VALID,0,VALID,97.1909,VALID,0,VALID,20.3074,VALID,61,VALID,0,
2014-10-16, 02:52:04,VALID,916.022,VALID,0,VALID,97.1909,VALID,0,VALID,20.2879,VALID,61,VALID,0,
2014-10-16, 02:53:04,VALID,916.018,VALID,0,VALID,97.1986,VALID,0,VALID,20.2879,VALID,61,VALID,0,
2014-10-16, 02:54:04,VALID,916.003,VALID,0,VALID,97.1986,VALID,0,VALID,20.2684,VALID,61,VALID,0,
2014-10-16, 02:55:04,VALID,916.003,VALID,0,VALID,97.2138,VALID,0,VALID,20.2684,VALID,60,VALID,0,
2014-10-16, 02:56:04,VALID,915.999,VALID,0,VALID,97.2138,VALID,0,VALID,20.2879,VALID,61,VALID,0,
2014-10-16, 02:57:04,VALID,915.974,VALID,0,VALID,97.229,VALID,0,VALID,20.3074,VALID,139,VALID,0,
2014-10-16, 02:58:04,VALID,916.005,VALID,0,VALID,97.2443,VALID,0,VALID,20.3074,VALID,141,VALID,0,
2014-10-16, 02:59:04,VALID,916.005,VALID,0,VALID,97.229,VALID,0,VALID,20.3269,VALID,141,VALID,0,
2014-10-16, 03:00:04,VALID,916.049,VALID,0,VALID,97.2595,VALID,0,VALID,20.2879,VALID,141,VALID,0,
2014-10-16, 03:01:04,VALID,916.029,VALID,0,VALID,97.2519,VALID,0,VALID,20.2489,VALID,124,VALID,0,
2014-10-16, 03:02:04,VALID,916.055,VALID,0,VALID,97.2443,VALID,0,VALID,20.2489,VALID,124,VALID,0,
2014-10-16, 03:03:04,VALID,916.055,VALID,0,VALID,97.2519,VALID,0,VALID,20.2489,VALID,124,VALID,0,
2014-10-16, 03:04:04,VALID,916.087,VALID,0,VALID,97.2595,VALID,0,VALID,20.2879,VALID,124,VALID,0,
2014-10-16, 03:05:04,VALID,916.096,VALID,0,VALID,97.2595,VALID,0,VALID,20.2879,VALID,126,VALID,0,
2014-10-16, 03:06:04,VALID,916.112,VALID,0,VALID,97.2595,VALID,0,VALID,20.2879,VALID,131,VALID,0,
2014-10-16, 03:07:04,VALID,916.135,VALID,0,VALID,97.29,VALID,0,VALID,20.3074,VALID,139,VALID,0,
2014-10-16, 03:08:04,VALID,916.158,VALID,0,VALID,97.29,VALID,0,VALID,20.3074,VALID,132,VALID,0,
2014-10-16, 03:09:04,VALID,916.211,VALID,0,VALID,97.2824,VALID,0,VALID,20.2879,VALID,148,VALID,0,
2014-10-16, 03:10:04,VALID,916.237,VALID,0,VALID,97.3053,VALID,0,VALID,20.2684,VALID,145,VALID,0,
2014-10-16, 03:11:04,VALID,916.242,VALID,0,VALID,97.2824,VALID,0,VALID,20.2684,VALID,135,VALID,0,
2014-10-16, 03:12:04,VALID,916.23,VALID,0,VALID,97.3129,VALID,0,VALID,20.2684,VALID,135,VALID,0,
2014-10-16, 03:13:04,VALID,916.257,VALID,0,VALID,97.3053,VALID,0,VALID,20.2489,VALID,105,VALID,0,
2014-10-16, 03:14:04,VALID,916.276,VALID,0,VALID,97.3129,VALID,0,VALID,20.2293,VALID,109,VALID,0,
2014-10-16, 03:15:04,VALID,916.286,VALID,0,VALID,97.3129,VALID,0,VALID,20.2293,VALID,123,VALID,0,
2014-10-16, 03:16:04,VALID,916.285,VALID,0,VALID,97.3053,VALID,0,VALID,20.2293,VALID,122,VALID,0,
2014-10-16, 03:17:04,VALID,916.31,VALID,0,VALID,97.3129,VALID,0,VALID,20.2098,VALID,122,VALID,0,
2014-10-16, 03:18:04,VALID,916.343,VALID,0,VALID,97.3281,VALID,0,VALID,20.1903,VALID,115,VALID,0,
2014-10-16, 03:19:04,VALID,916.356,VALID,0,VALID,97.3434,VALID,0,VALID,20.1708,VALID,130,VALID,0,
2014-10-16, 03:20:04,VALID,916.388,VALID,0,VALID,97.3434,VALID,0,VALID,20.1513,VALID,131,VALID,0,
2014-10-16, 03:21:04,VALID,916.408,VALID,0,VALID,97.351,VALID,0,VALID,20.1708,VALID,141,VALID,0,
2014-10-16, 03:22:04,VALID,916.385,VALID,0,VALID,97.351,VALID,0,VALID,20.1513,VALID,125,VALID,0,
2014-10-16, 03:23:04,VALID,916.365,VALID,0,VALID,97.3281,VALID,0,VALID,20.1708,VALID,176,VALID,0,
2014-10-16, 03:24:04,VALID,916.309,VALID,0,VALID,97.3586,VALID,0,VALID,20.1708,VALID,186,VALID,0.113281,
2014-10-16, 03:25:04,VALID,916.316,VALID,0,VALID,97.3586,VALID,0,VALID,20.1903,VALID,176,VALID,0,
2014-10-16, 03:26:04,VALID,916.284,VALID,0,VALID,97.3586,VALID,0,VALID,20.2098,VALID,169,VALID,0,
2014-10-16, 03:27:04,VALID,916.253,VALID,0,VALID,97.3739,VALID,0,VALID,20.2098,VALID,169,VALID,0,
2014-10-16, 03:28:04,VALID,916.271,VALID,0,VALID,97.3891,VALID,0,VALID,20.2293,VALID,195,VALID,0,
2014-10-16, 03:29:04,VALID,916.248,VALID,0,VALID,97.351,VALID,0,VALID,20.2489,VALID,196,VALID,0,
2014-10-16, 03:30:04,VALID,916.225,VALID,0,VALID,97.3663,VALID,0,VALID,20.2489,VALID,179,VALID,0,
2014-10-16, 03:31:04,VALID,916.23,VALID,0,VALID,97.3663,VALID,0,VALID,20.2684,VALID,179,VALID,0,
2014-10-16, 03:32:04,VALID,916.227,VALID,0,VALID,97.3815,VALID,0,VALID,20.2489,VALID,179,VALID,0,
2014-10-16, 03:33:04,VALID,916.23,VALID,0,VALID,97.3663,VALID,0,VALID,20.2489,VALID,185,VALID,0,
2014-10-16, 03:34:04,VALID,916.229,VALID,0,VALID,97.3815,VALID,0,VALID,20.2894,VALID,190,VALID,0,
2014-10-16, 03:35:04,VALID,916.229,VALID,0,VALID,97.3891,VALID,0,VALID,20.2879,VALID,189,VALID,0,
2014-10-16, 03:36:04,VALID,916.208,VALID,0,VALID,97.3739,VALID,0,VALID,20.2879,VALID,172,VALID,0,
2014-10-16, 03:37:04,VALID,916.241,VALID,0,VALID,97.3815,VALID,0,VALID,20.2879,VALID,160,VALID,0,
2014-10-16, 03:38:04,VALID,916.228,VALID,0,VALID,97.3891,VALID,0,VALID,20.2879,VALID,171,VALID,0,
2014-10-16, 03:39:04,VALID,916.25,VALID,0,VALID,97.3968,VALID,0,VALID,20.3089,VALID,179,VALID,0,
2014-10-16, 03:40:04,VALID,916.24,VALID,0,VALID,97.3968,VALID,0,VALID,20.2879,VALID,179,VALID,0,
2014-10-16, 03:41:04,VALID,916.231,VALID,0,VALID,97.3968,VALID,0,VALID,20.2684,VALID,156,VALID,0,
2014-10-16, 03:42:04,VALID,916.194,VALID,0,VALID,97.4044,VALID,0,VALID,20.2684,VALID,120,VALID,0,
2014-10-16, 03:43:04,VALID,916.158,VALID,0,VALID,97.412,VALID,0,VALID,20.2879,VALID,146,VALID,0,
2014-10-16, 03:44:04,VALID,916.139,VALID,0,VALID,97.4044,VALID,0,VALID,20.2684,VALID,125,VALID,0,
2014-10-16, 03:45:04,VALID,916.128,VALID,0,VALID,97.412,VALID,0,VALID,20.2684,VALID,123,VALID,0,
2014-10-16, 03:46:04,VALID,916.139,VALID,0,VALID,97.4044,VALID,0,VALID,20.2684,VALID,123,VALID,0,
2014-10-16, 03:47:04,VALID,916.099,VALID,0,VALID,97.4196,VALID,0,VALID,20.2684,VALID,123,VALID,0,
2014-10-16, 03:48:04,VALID,916.118,VALID,0,VALID,97.3968,VALID,0,VALID,20.2684,VALID,152,VALID,0,
2014-10-16, 03:49:04,VALID,916.128,VALID,0,VALID,97.4273,VALID,0,VALID,20.2489,VALID,133,VALID,0,
2014-10-16, 03:50:04,VALID,916.132,VALID,0,VALID,97.4425,VALID,0,VALID,20.2293,VALID,128,VALID,0,
2014-10-16, 03:51:04,VALID,916.118,VALID,0,VALID,97.4349,VALID,0.107441,VALID,20.2309,VALID,157,VALID,0,
2014-10-16, 03:52:04,VALID,916.088,VALID,0,VALID,97.4349,VALID,0,VALID,20.1903,VALID,140,VALID,0,
2014-10-16, 03:53:04,VALID,916.087,VALID,0,VALID,97.4349,VALID,0,VALID,20.1903,VALID,138,VALID,0,
2014-10-16, 03:54:04,VALID,916.094,VALID,0,VALID,97.4349,VALID,0,VALID,20.1693,VALID,138,VALID,0,
2014-10-16, 03:55:04,VALID,916.108,VALID,0,VALID,97.4273,VALID,0,VALID,20.1708,VALID,138,VALID,0,
2014-10-16, 03:56:04,VALID,916.112,VALID,0,VALID,97.4501,VALID,0,VALID,20.1513,VALID,138,VALID,0,
2014-10-16, 03:57:04,VALID,916.161,VALID,0,VALID,97.4273,VALID,0.107441,VALID,20.1513,VALID,137,VALID,0,
2014-10-16, 03:58:04,VALID,916.18,VALID,0,VALID,97.4501,VALID,0,VALID,20.1513,VALID,137,VALID,0,
2014-10-16, 03:59:04,VALID,916.166,VALID,0,VALID,97.4425,VALID,0,VALID,20.1498,VALID,137,VALID,0,
2014-10-16, 04:00:04,VALID,916.239,VALID,0,VALID,97.4349,VALID,0,VALID,20.1529,VALID,137,VALID,0,